Wind_Speed
33 33 34 35 35 34 34 35 35 33 34 32 30 29 29 29 29 29 28 28 28 27 26 25 24 23 23 24 23 23 24 24 23 23 23 22 22 22 22 22 23 23 23 23
34 34 36 36 35 35 35 35 34 34 34 31 31 31 30 31 31 31 30 30 30 29 28 27 27 25 25 26 26 26 26 25 24 24 25 24 25 25 25 25 25 26 26 26
35 35 37 37 35 34 35 36 35 35 34 34 34 34 33 32 32 31 31 31 31 32 32 30 30 29 28 27 28 27 27 27 28 27 27 28 28 28 29 29 28 27 27 28
35 35 38 38 37 37 36 36 36 35 34 34 36 36 34 34 34 34 34 34 33 32 32 31 31 31 30 29 28 28 29 30 30 31 31 31 31 31 31 31 30 30 29 31
35 36 37 37 36 37 38 38 38 38 37 36 37 38 37 37 37 36 36 36 35 34 32 32 32 31 31 30 29 29 30 30 31 32 32 32 32 32 32 32 32 32 33 32
35 37 37 35 35 37 37 39 37 38 38 38 38 38 37 37 38 37 37 36 36 34 33 34 33 33 31 31 31 31 31 31 32 32 32 33 33 33 33 33 34 35 35 33
35 36 37 36 37 38 38 39 38 38 38 39 40 39 38 37 37 38 38 38 37 36 36 36 35 34 33 33 33 33 32 33 33 34 34 35 35 35 35 34 35 35 34 34
34 37 37 37 37 37 38 38 38 38 38 38 39 39 38 37 36 36 36 37 37 36 35 36 35 35 35 35 35 34 34 35 35 36 36 36 36 36 35 35 35 35 35 35
36 37 37 37 37 37 37 39 38 38 37 37 37 38 36 36 35 34 35 36 36 37 35 36 35 35 36 36 35 35 36 36 36 37 37 37 37 37 36 36 36 35 35 36
36 36 36 37 38 38 39 38 38 37 37 36 36 37 37 37 36 35 35 35 36 36 35 34 35 35 36 36 37 36 37 37 37 37 37 37 38 37 37 37 37 38 37 36
36 35 35 35 36 37 37 37 38 38 38 37 35 35 36 36 36 36 35 35 36 36 36 34 34 35 35 36 36 37 37 37 37 37 37 37 37 38 38 37 37 37 37 36
34 34 34 33 34 36 36 36 36 36 37 37 36 35 34 35 36 35 34 35 35 36 35 35 34 35 36 36 36 37 37 37 37 37 37 37 37 37 38 37 37 36 36 36
33 33 33 33 33 34 35 34 34 33 32 33 34 34 34 34 33 34 34 35 34 34 34 34 35 35 36 36 37 36 37 37 38 38 38 38 38 37 37 37 36 36 36 35
31 32 33 33 33 32 32 32 33 33 32 32 33 33 32 31 32 33 33 34 34 34 34 35 35 35 35 36 35 36 37 37 37 38 38 38 37 38 37 37 36 35 35 36
27 28 29 30 29 28 28 29 30 30 31 30 29 29 29 29 30 31 32 33 33 33 33 33 32 33 34 34 35 35 36 37 37 37 37 36 35 35 35 34 34 34 34 35
22 23 24 24 23 24 24 24 25 25 26 26 26 27 27 27 28 29 29 30 29 30 31 31 30 31 33 33 34 35 34 34 33 33 33 32 31 32 32 33 33 33 33 33
19 19 19 18 18 19 19 20 21 22 22 23 23 23 24 26 27 27 27 27 28 28 28 29 29 30 31 32 32 32 31 30 30 30 30 31 30 31 31 32 32 32 32 32
15 15 16 16 16 16 16 18 19 21 22 22 23 23 23 24 24 24 24 25 26 26 27 28 28 28 29 29 29 29 29 29 28 29 29 29 29 29 29 29 29 30 30 30
12 12 13 14 15 15 15 16 17 18 20 21 21 21 21 22 22 22 23 24 24 25 26 26 26 26 26 27 27 27 27 27 27 27 27 28 27 27 28 28 28 28 28 29
10 11 12 13 14 14 14 14 15 16 17 17 18 19 20 20 21 22 22 23 23 24 24 24 24 24 24 24 24 24 24 25 25 25 26 26 27 27 28 28 28 27 26 27
10 10 10 11 12 13 13 14 14 15 15 16 17 17 18 19 19 20 20 20 20 21 21 21 21 21 21 21 21 21 21 22 22 22 24 25 25 25 25 25 24 24 24 24
8 9 10 10 11 11 12 12 13 14 14 14 14 14 15 16 16 17 17 18 18 18 17 18 18 18 19 19 19 20 20 19 20 21 21 21 22 23 23 23 24 23 24 24
6 6 7 8 9 10 10 10 10 11 11 12 13 13 13 14 14 14 15 15 15 15 16 16 16 17 17 17 17 17 18 18 18 19 19 19 20 20 20 21 22 22 22 22
6 6 7 8 8 9 9 9 9 10 10 11 12 13 13 13 13 13 13 14 14 14 14 14 14 14 15 16 16 16 16 16 17 17 17 18 19 19 19 19 20 20 20 21
7 7 7 7 7 7 7 8 9 10 10 11 11 12 12 12 12 12 12 13 13 13 13 13 14 14 15 14 14 15 15 16 16 16 17 18 18 18 18 19 19 20 20 20
6 6 6 5 5 5 6 6 7 8 9 10 10 10 10 10 10 11 11 12 12 12 13 13 14 14 14 14 14 15 15 15 15 16 16 16 17 17 18 19 20 20 20 20
4 5 5 5 5 6 6 6 7 7 8 8 8 9 9 9 9 10 11 11 12 12 13 13 14 14 15 15 15 15 15 16 16 16 16 16 17 17 18 18 19 19 19 20
Wind_Direction
247 243 242 244 243 243 245 249 251 254 256 256 256 257 260 261 261 264 269 270 270 268 272 274 274 275 274 272 270 271 273 275 270 268 272 272 274 275 277 278 278 278 280 280
248 247 244 244 245 245 245 247 250 252 253 253 254 256 258 259 261 264 265 268 268 267 269 272 274 273 273 270 268 267 270 274 271 268 272 274 274 276 277 278 277 278 277 277
249 247 245 243 243 244 245 246 248 250 252 254 254 258 261 261 261 264 264 265 265 263 266 269 270 271 270 269 267 268 269 270 269 268 269 270 271 273 276 279 277 278 278 279
249 247 245 244 243 243 244 245 247 251 252 254 256 259 261 262 263 265 266 266 266 265 267 269 270 269 268 268 269 268 268 269 269 269 269 270 272 273 276 279 278 277 280 280
249 247 247 246 246 246 246 247 248 250 253 256 258 259 260 262 264 265 266 268 267 266 267 268 268 267 267 267 268 269 269 270 271 272 273 275 276 275 275 277 277 279 279 279
251 249 248 248 247 249 251 251 249 250 252 253 256 259 260 261 262 262 263 266 265 264 266 267 267 268 268 268 269 270 271 273 272 273 273 274 276 275 274 275 277 278 279 279
252 251 251 252 252 252 253 254 252 252 254 254 256 259 259 260 261 263 265 266 266 266 267 267 268 268 268 268 268 269 271 273 273 274 274 274 275 276 275 274 275 277 278 278
253 253 254 255 255 255 255 255 255 254 255 257 259 259 259 261 263 265 266 267 267 267 267 267 267 267 268 270 269 269 270 272 273 274 274 276 276 276 276 276 276 277 277 277
254 255 256 256 255 256 255 256 256 255 255 256 259 259 260 261 263 267 268 267 268 268 265 265 265 266 268 269 270 270 271 272 273 274 275 276 277 277 276 277 278 279 279 277
255 256 257 256 256 257 258 258 257 256 257 258 258 259 259 261 263 266 269 269 268 267 264 263 264 266 267 267 268 269 270 272 273 273 274 275 276 277 277 277 278 279 279 278
256 257 256 254 256 258 259 258 256 256 256 256 255 256 258 258 260 264 267 269 269 267 264 264 264 265 266 267 266 267 269 271 272 272 272 274 275 276 277 277 278 278 277 277
257 257 256 254 255 256 259 259 258 257 257 257 255 255 257 259 261 265 267 268 268 266 264 264 264 265 266 267 268 268 269 271 272 272 273 273 273 274 275 276 276 275 276 277
257 256 255 253 254 254 254 254 255 253 254 255 254 256 259 261 264 267 269 267 266 267 266 266 267 266 267 267 269 270 270 271 272 273 274 275 274 274 275 276 276 276 276 277
257 258 256 255 255 252 251 253 252 252 255 254 254 256 258 260 262 265 266 265 267 268 268 269 269 269 268 269 270 272 271 270 271 273 273 273 273 274 275 276 277 277 276 277
257 257 256 257 256 253 250 250 252 254 255 255 253 257 261 261 261 263 264 266 268 269 270 270 270 270 270 270 271 273 273 271 270 271 272 272 272 273 275 276 278 278 277 278
257 256 256 256 254 251 249 251 255 256 258 256 256 261 263 264 266 267 267 268 269 270 271 273 273 274 274 273 273 274 274 273 272 274 273 274 274 274 275 277 278 278 278 279
254 255 253 249 247 247 250 252 255 257 258 258 260 264 263 265 266 267 268 270 271 272 274 276 277 276 276 276 275 276 276 276 276 277 278 278 278 278 278 278 278 278 279 279
253 251 246 244 251 252 252 254 256 258 260 262 263 264 264 265 267 267 268 270 272 273 274 276 275 276 276 276 276 277 278 278 278 278 279 280 279 279 280 280 280 280 279 279
252 248 247 249 252 255 258 260 263 264 264 263 263 265 267 269 270 271 272 274 275 274 275 276 277 277 277 279 279 279 279 280 279 278 277 278 280 280 281 281 281 281 280 280
253 256 254 255 258 260 264 265 266 265 265 267 268 271 271 272 272 273 275 276 277 276 276 276 277 278 280 281 281 281 279 279 280 280 279 279 280 280 280 280 279 279 279 280
254 254 252 259 264 265 266 266 265 266 267 271 272 271 272 272 274 275 277 277 278 279 280 280 282 284 284 284 284 284 283 283 283 284 284 282 280 279 279 279 280 280 281 282
258 257 261 265 265 268 270 270 270 270 271 274 276 276 276 276 276 277 277 277 279 283 283 282 283 285 285 286 287 286 285 285 287 287 288 288 286 284 284 283 283 284 285 285
264 267 267 270 273 275 277 277 276 275 276 276 278 279 280 279 278 279 280 280 282 285 286 286 285 287 286 287 288 288 287 288 289 289 291 292 292 291 290 290 288 288 288 287
273 277 279 280 279 280 282 284 282 281 280 281 282 283 283 281 282 283 283 284 284 285 287 289 291 292 292 292 292 291 292 293 294 294 296 297 296 293 293 293 293 293 292 289
273 276 278 280 283 282 285 288 286 283 283 284 285 286 286 285 283 283 284 286 287 287 287 288 290 292 295 295 294 294 293 293 294 297 300 301 300 298 297 296 297 297 295 294
272 271 271 272 282 285 285 291 291 291 291 291 290 289 290 288 288 288 289 288 288 288 289 290 291 292 292 292 291 292 293 293 295 299 301 302 302 302 301 299 298 297 297 297
278 284 284 286 289 289 289 297 301 299 301 300 298 294 292 290 290 290 292 293 292 292 292 292 292 293 293 291 289 292 294 293 294 298 298 298 300 301 303 304 302 301 300 300
Height
5825 5827 5828 5830 5832 5833 5834 5834 5836 5837 5839 5841 5843 5844 5846 5846 5847 5847 5848 5848 5848 5848 5848 5849 5849 5849 5850 5850 5850 5849 5848 5847 5847 5847 5846 5846 5846 5845 5844 5844 5843 5842 5841 5840
5816 5818 5819 5821 5823 5825 5826 5827 5827 5829 5831 5833 5834 5836 5837 5838 5839 5839 5840 5840 5840 5840 5841 5841 5842 5842 5842 5842 5841 5841 5841 5840 5840 5839 5839 5838 5838 5838 5837 5836 5835 5835 5834 5833
5806 5808 5809 5812 5815 5816 5817 5818 5820 5821 5823 5824 5826 5827 5828 5829 5830 5831 5832 5832 5832 5832 5833 5833 5834 5834 5834 5833 5833 5833 5833 5833 5832 5832 5831 5831 5830 5830 5829 5829 5828 5827 5827 5826
5796 5798 5799 5805 5805 5806 5808 5809 5810 5811 5813 5815 5817 5817 5818 5820 5821 5822 5823 5823 5822 5823 5823 5824 5825 5825 5825 5825 5824 5824 5824 5824 5824 5823 5822 5822 5822 5821 5821 5820 5819 5818 5818 5817
5785 5787 5789 5793 5795 5796 5798 5799 5801 5803 5804 5805 5806 5807 5808 5810 5811 5812 5813 5813 5813 5813 5814 5814 5815 5815 5815 5815 5815 5815 5815 5815 5814 5814 5813 5813 5813 5813 5812 5811 5811 5810 5809 5808
5775 5777 5779 5785 5786 5786 5788 5789 5792 5793 5795 5796 5797 5798 5799 5800 5801 5801 5802 5802 5802 5802 5803 5804 5804 5805 5805 5806 5806 5806 5806 5806 5806 5805 5805 5804 5803 5802 5802 5802 5801 5800 5800 5799
5766 5766 5769 5774 5775 5777 5778 5779 5781 5783 5784 5786 5787 5788 5789 5789 5790 5791 5791 5792 5792 5792 5793 5793 5794 5795 5796 5797 5797 5797 5797 5797 5797 5796 5795 5795 5794 5793 5792 5791 5791 5790 5789 5788
5756 5757 5761 5763 5764 5766 5767 5768 5770 5772 5773 5775 5776 5777 5778 5779 5780 5780 5781 5781 5781 5782 5783 5784 5785 5785 5786 5787 5787 5787 5787 5787 5787 5786 5786 5785 5784 5783 5781 5780 5779 5778 5778 5777
5747 5749 5750 5752 5753 5754 5756 5757 5759 5761 5763 5764 5765 5767 5768 5769 5770 5771 5772 5772 5772 5772 5773 5774 5775 5776 5776 5776 5776 5776 5777 5777 5776 5775 5775 5774 5774 5773 5771 5770 5769 5767 5766 5766
5736 5737 5739 5741 5742 5743 5745 5747 5748 5750 5752 5753 5755 5757 5759 5759 5760 5761 5762 5762 5763 5763 5763 5764 5765 5766 5766 5766 5766 5766 5766 5766 5765 5765 5764 5763 5762 5761 5760 5759 5757 5756 5755 5754
5725 5727 5728 5730 5731 5732 5734 5736 5737 5739 5741 5742 5744 5746 5747 5749 5750 5751 5752 5752 5752 5752 5752 5753 5754 5755 5755 5755 5755 5755 5755 5754 5754 5754 5753 5752 5751 5750 5749 5747 5746 5745 5744 5743
5715 5717 5717 5720 5721 5722 5723 5725 5727 5728 5730 5731 5733 5735 5736 5737 5739 5741 5741 5741 5741 5741 5741 5742 5743 5744 5744 5744 5744 5744 5743 5743 5742 5742 5741 5740 5739 5738 5736 5736 5734 5733 5732 5732
5705 5706 5707 5709 5710 5711 5713 5715 5716 5718 5720 5721 5723 5725 5726 5727 5729 5730 5731 5731 5731 5731 5731 5732 5732 5733 5733 5733 5733 5733 5732 5732 5731 5730 5729 5728 5727 5726 5725 5724 5722 5721 5721 5720
5696 5696 5697 5699 5700 5701 5703 5705 5707 5708 5711 5713 5715 5717 5718 5718 5719 5720 5721 5721 5720 5721 5721 5721 5722 5722 5722 5722 5722 5721 5720 5720 5720 5719 5718 5717 5716 5715 5714 5712 5711 5710 5709 5709
5688 5689 5689 5690 5691 5693 5694 5696 5699 5700 5702 5704 5706 5708 5709 5710 5710 5711 5711 5711 5711 5711 5711 5711 5711 5711 5711 5711 5711 5710 5709 5708 5707 5707 5706 5705 5704 5703 5702 5701 5700 5699 5698 5697
5681 5681 5682 5683 5684 5685 5687 5689 5691 5693 5695 5696 5698 5699 5700 5701 5702 5702 5702 5702 5702 5701 5701 5701 5701 5701 5701 5701 5700 5700 5698 5698 5697 5696 5696 5694 5693 5692 5691 5691 5690 5688 5687 5686
5674 5675 5675 5677 5678 5680 5681 5683 5685 5687 5688 5689 5690 5691 5692 5693 5694 5694 5694 5693 5693 5693 5693 5693 5692 5691 5691 5690 5690 5689 5689 5688 5687 5686 5685 5684 5683 5682 5681 5680 5679 5678 5677 5675
5670 5671 5672 5673 5674 5676 5677 5678 5680 5681 5682 5683 5684 5685 5686 5686 5686 5686 5686 5686 5685 5685 5685 5684 5683 5682 5682 5681 5681 5680 5679 5679 5677 5676 5675 5674 5673 5672 5671 5670 5669 5668 5666 5665
5666 5667 5668 5670 5671 5672 5673 5673 5674 5675 5676 5677 5678 5678 5678 5678 5678 5679 5678 5678 5678 5678 5677 5676 5675 5675 5674 5673 5672 5671 5670 5669 5668 5667 5666 5665 5664 5663 5662 5661 5659 5658 5657 5656
5664 5664 5665 5666 5667 5668 5668 5669 5669 5670 5671 5671 5672 5672 5672 5672 5672 5672 5672 5671 5671 5671 5670 5669 5668 5667 5666 5665 5664 5663 5662 5661 5659 5658 5657 5656 5655 5654 5653 5652 5650 5649 5648 5647
5661 5661 5662 5663 5663 5663 5664 5664 5665 5665 5666 5666 5666 5666 5666 5666 5665 5665 5665 5665 5664 5664 5663 5662 5661 5660 5658 5657 5656 5655 5654 5653 5652 5650 5649 5648 5647 5646 5644 5643 5642 5641 5640 5638
5658 5658 5659 5659 5659 5660 5660 5660 5660 5661 5661 5661 5660 5660 5660 5660 5660 5659 5659 5659 5658 5657 5656 5655 5655 5654 5652 5651 5650 5649 5647 5646 5645 5644 5642 5641 5639 5637 5636 5635 5633 5632 5631 5630
5655 5656 5656 5656 5656 5656 5656 5656 5656 5656 5656 5656 5656 5656 5656 5655 5655 5654 5654 5653 5652 5652 5651 5650 5649 5648 5646 5645 5644 5643 5642 5640 5639 5638 5636 5634 5633 5631 5629 5628 5626 5625 5623 5622
5653 5653 5653 5653 5653 5653 5653 5652 5652 5652 5652 5652 5652 5652 5651 5651 5650 5650 5649 5648 5648 5647 5646 5645 5644 5643 5642 5640 5639 5638 5636 5635 5633 5632 5630 5629 5627 5625 5623 5622 5620 5618 5617 5615
5651 5651 5651 5651 5651 5650 5650 5650 5649 5649 5649 5648 5648 5648 5647 5647 5646 5646 5645 5644 5644 5643 5642 5641 5640 5638 5637 5635 5634 5632 5631 5630 5628 5627 5625 5623 5621 5620 5618 5616 5614 5613 5611 5609
5649 5649 5649 5649 5649 5648 5648 5647 5647 5646 5646 5645 5645 5644 5644 5643 5643 5642 5641 5640 5639 5639 5637 5636 5635 5634 5632 5631 5630 5628 5627 5625 5624 5622 5620 5619 5617 5615 5613 5611 5609 5607 5605 5603
5647 5646 5646 5646 5646 5646 5646 5645 5645 5644 5644 5643 5642 5642 5641 5640 5639 5639 5638 5636 5635 5634 5633 5632 5631 5629 5628 5627 5625 5624 5622 5621 5619 5617 5616 5614 5612 5610 5608 5606 5604 5601 5599 5597